Hourly Weather Roundup
Issued by NWS Central Illinois

Home | Current Version | Previous Version | Text Only | Print | Product List | Glossary On
Versions: 1 2 3 4 5 6 7 8 9 10 11 12 13 14 15 16 17 18 19 20 21 22 23 24 25 26 27 28 29 30 31 32 33 34 35 36 37 38 39 40 41 42 43 44 45 46 47 48 49 50
000
NZUS43 KILX 250010
HWRILX

Area Weather Roundup
National Weather Service Lincoln IL
700 PM CDT SUN SEP 24 2017

NOTE:  "FAIR" indicates few or no clouds below 12,000 feet, with
       no sigificant weather and/or obstructions to visibility.


CITY           SKY/WX    TMP DP  RH WIND       PRES   REMARKS
Bloomington    CLEAR     81  60  48 E7        30.01S HX  82
6HR MIN TEMP:  81; 6HR MAX TEMP:  89;

Champaign      CLEAR     82  56  40 E6        29.99S HX  82
6HR MIN TEMP:  82; 6HR MAX TEMP:  94;

Danville       CLEAR     78  61  55 SE3       29.98F
6HR MIN TEMP:  78; 6HR MAX TEMP:  92;

Decatur        CLEAR     84  57  39 CALM      29.98S HX  83
6HR MIN TEMP:  84; 6HR MAX TEMP:  93;

Effingham      CLEAR     84  58  40 E3        29.99S HX  83
6HR MIN TEMP:  84; 6HR MAX TEMP:  95;

Flora          CLEAR     86  61  43 E3        29.98R HX  86
6HR MIN TEMP:  86; 6HR MAX TEMP:  95;

Galesburg      CLEAR     82  62  50 SE3       29.98S HX  83
6HR MIN TEMP:  82; 6HR MAX TEMP:  90;

Jacksonville   CLEAR     82  60  46 SE3       29.96S HX  82
6HR MIN TEMP:  82; 6HR MAX TEMP:  92;

Lacon          CLEAR     80  64  58 CALM      29.97S HX  81
6HR MIN TEMP:  80; 6HR MAX TEMP:  91;

Lawrenceville  CLEAR     79  66  64 SE8       29.99R HX  81
6HR MIN TEMP:  79; 6HR MAX TEMP:  94;

Litchfield     HAZE      79  62  56 CALM      29.98R VSB<1/4 HX  80
6HR MIN TEMP:  79; 6HR MAX TEMP:  91;

$$


CITY           SKY/WX    TMP DP  RH WIND       PRES   REMARKS
Lincoln        CLEAR     82  62  50 CALM      29.97S HX  83
6HR MIN TEMP:  82; 6HR MAX TEMP:  93;

Macomb         CLEAR     81  61  50 SE3       29.98S HX  82
6HR MIN TEMP:  81; 6HR MAX TEMP:  92;

Mattoon        CLEAR     83  60  45 SE5       29.98S HX  83
6HR MIN TEMP:  83; 6HR MAX TEMP:  92;

Mt Carmel AP   CLEAR     81  62  51 E8        29.99R HX  82
6HR MIN TEMP:  81; 6HR MAX TEMP:  93;

Olney-Noble AP CLEAR     80  56  44 SE3       29.98S HX  80
Paris AP       CLEAR     83  59  43 E6        30.01S HX  83
6HR MIN TEMP:  83; 6HR MAX TEMP:  93;

Peoria         CLEAR     85  62  46 SE3       29.97S HX  85
6HR MIN TEMP:  85; 6HR MAX TEMP:  91;

Pontiac        CLEAR     80  62  53 E6        30.00S HX  81
6HR MIN TEMP:  80; 6HR MAX TEMP:  93;

Rantoul        CLEAR     83  60  44 E3        30.00S HX  83
6HR MIN TEMP:  83; 6HR MAX TEMP:  93;

Robinson       CLEAR     77  64  62 CALM      30.00S
6HR MIN TEMP:  77; 6HR MAX TEMP:  92;

Springfield    CLEAR     84  59  42 SE3       29.97S HX  84
6HR MIN TEMP:  84; 6HR MAX TEMP:  94;

Taylorville    CLEAR     82  59  45 CALM      29.97S HX  82
6HR MIN TEMP:  82; 6HR MAX TEMP:  93;

$$

...REGIONAL REPORTS...


CITY           SKY/WX    TMP DP  RH WIND       PRES   REMARKS
Chicago O`Hare PTCLDY    85  58  39 E10       30.00S HX  84
Kankakee       CLEAR     80  66  62 SE5       30.02S HX  82
Moline         CLEAR     78  67  68 SE5       29.95S HX  80
Mount Sterling CLEAR     79  65  63 CALM      29.96S HX  81
Mount Vernon     N/A     80  61  52 CALM      29.98R HX  81
Pittsfield     CLEAR     83  64  52 CALM      29.97S HX  84
Quincy         CLEAR     83  62  49 SE3       29.95S HX  84
Rockford       CLEAR     81  60  48 SE3       30.00S HX  82
$$


CITY           SKY/WX    TMP DP  RH WIND       PRES   REMARKS
Burlington     CLEAR     81  65  58 SE5       29.95S HX  83
Cedar Rapids   CLEAR     82  61  48 SE5       29.94S HX  83
Des Moines     PTCLDY    84  62  47 SE7       29.90R HX  85
Kirksville     CLEAR     84  62  47 E5        29.95R HX  85
Ottumwa        CLEAR     81  64  56 SE6       29.93S HX  82
St Louis       PTCLDY    85  63  47 E7        29.96S HX  86
$$


CITY           SKY/WX    TMP DP  RH WIND       PRES   REMARKS
Terre Haute    CLEAR     79  58  48 E5        30.00S HX  80
Evansville     CLEAR     82  63  52 CALM      29.99R HX  83
Indianapolis   PTCLDY    82  56  40 SE7       30.03S HX  82
Lafayette      CLEAR     76  60  57 E3        30.00F
Madison        CLEAR     82  60  47 S5        29.98S HX  82
Milwaukee      PTCLDY    81  60  48 S7        30.01S HX  82
$$






USA.gov is the U.S. government's official web portal to all federal, state and local government web resources and services.